Location: Nairn
(57.5833°N, 3.8667°W)
Time: 08:24:44
(UTC+00:00)

Vanguard 1 - Pass Details

Date: 27 November 2020
Orbit: 649 x 3834 km, 34.3° (Epoch: 15 January)

Event Time Altitude Azimuth Distance (km) Brightness Sun altitude
Rises 10:12:09 0° 252° (WSW) 4,947 13.6 7.8°
Reaches altitude 10° 10:16:19 10° 235° (SW) 4,449 13.6 8.1°
Maximum altitude 10:24:20 19° 196° (SSW) 4,566 14.4 8.5°
Drops below altitude 10° 10:35:10 10° 160° (SSE) 6,211 18.9 9.0°
Sets 10:42:57 0° 147° (SSE) 7,674 16.4 9.4°
